EXS4WR LGZA-EGNT

Flight info

Callsign EXS4WR
Flight time N/A
Altitude 40000
Route OSDES UN1 LATAN DCT DAMIC DCT AIOSA DCT IPKIS DCT ROTAR DCT BORMI DCT RESIA DCT ELMUR DCT RIPUS DCT DITON DCT HOC DCT LUL DCT RLP DCT ROTSI DCT KOTUN DCT AMAXA DCT VESAN DCT RATUK DCT SOVAT L613 MAMUL UY250 RIMTO
Aircraft B738/M-SDE2E3FGHIRWXY/LB1

Departure

Time N/A
Airport Zakynthos International Airport Dionysios Solomos (LGZA)

Arrival

Time 2026-05-04 16:24
Airport Newcastle International Airport (EGNT)
Time Latitude Longitude Altitude Speed Heading
2026-05-04 15:50 52.59957 -0.52899 40052 ft 435 kts 330°
2026-05-04 15:50 52.62612 -0.55287 40055 ft 435 kts 330°
2026-05-04 15:51 52.67925 -0.60075 40041 ft 435 kts 330°
2026-05-04 15:51 52.73221 -0.64862 40046 ft 434 kts 330°
2026-05-04 15:52 52.78498 -0.69645 40054 ft 433 kts 330°
2026-05-04 15:52 52.83770 -0.74435 40046 ft 432 kts 330°
2026-05-04 15:53 52.89032 -0.79231 40049 ft 431 kts 330°
2026-05-04 15:53 52.94285 -0.84033 40049 ft 431 kts 330°
2026-05-04 15:54 52.99539 -0.88847 40053 ft 432 kts 330°
2026-05-04 15:54 53.04795 -0.93673 40049 ft 432 kts 330°
2026-05-04 15:55 53.10047 -0.98501 40049 ft 431 kts 330°
2026-05-04 15:55 53.15296 -1.03341 40055 ft 431 kts 330°
2026-05-04 15:56 53.20544 -1.08195 39760 ft 434 kts 330°
2026-05-04 15:56 53.23180 -1.10639 39333 ft 432 kts 330°
2026-05-04 15:56 53.25806 -1.13076 38847 ft 432 kts 330°
2026-05-04 15:57 53.28434 -1.15521 38203 ft 432 kts 330°
2026-05-04 15:57 53.31059 -1.17966 37615 ft 431 kts 331°
2026-05-04 15:57 53.33669 -1.20399 37055 ft 429 kts 331°
2026-05-04 15:57 53.36271 -1.22826 36506 ft 427 kts 332°
2026-05-04 15:58 53.38832 -1.25212 35959 ft 426 kts 333°
2026-05-04 15:58 53.41566 -1.27191 35522 ft 420 kts 343°
2026-05-04 15:58 53.44337 -1.28377 35106 ft 414 kts 353°
2026-05-04 15:58 53.47185 -1.28829 34693 ft 409 kts 359°
2026-05-04 15:59 53.50019 -1.29093 34266 ft 406 kts 359°
2026-05-04 15:59 53.52824 -1.29383 33812 ft 403 kts 359°
2026-05-04 15:59 53.55616 -1.29723 33332 ft 401 kts 356°
2026-05-04 15:59 53.58344 -1.30632 32900 ft 400 kts 346°
2026-05-04 16:00 53.60947 -1.32279 32476 ft 400 kts 337°
2026-05-04 16:00 53.63361 -1.34579 32080 ft 398 kts 332°
2026-05-04 16:00 53.65711 -1.37018 31656 ft 394 kts 331°
2026-05-04 16:00 53.68031 -1.39442 31262 ft 391 kts 332°
2026-05-04 16:01 53.70341 -1.41819 30873 ft 387 kts 332°
2026-05-04 16:01 53.72638 -1.44160 30485 ft 384 kts 332°
2026-05-04 16:01 53.74919 -1.46482 30081 ft 382 kts 332°
2026-05-04 16:01 53.77185 -1.48792 29646 ft 378 kts 332°
2026-05-04 16:02 53.79421 -1.51076 29240 ft 374 kts 332°
2026-05-04 16:02 53.81636 -1.53341 28830 ft 370 kts 332°
2026-05-04 16:02 53.85993 -1.57806 28001 ft 363 kts 331°
2026-05-04 16:03 53.88141 -1.60011 27609 ft 359 kts 331°
2026-05-04 16:03 53.90272 -1.62202 27209 ft 357 kts 331°
2026-05-04 16:03 53.92387 -1.64379 26813 ft 355 kts 331°
2026-05-04 16:03 53.94498 -1.66555 26419 ft 354 kts 331°
2026-05-04 16:04 53.96600 -1.68724 26013 ft 352 kts 330°
2026-05-04 16:04 54.00795 -1.72932 25235 ft 348 kts 339°
2026-05-04 16:04 54.03123 -1.73842 24813 ft 344 kts
2026-05-04 16:05 54.05496 -1.73393 24369 ft 344 kts 12°
2026-05-04 16:05 54.07832 -1.72496 23989 ft 345 kts 14°
2026-05-04 16:05 54.12450 -1.70546 23468 ft 337 kts 15°
2026-05-04 16:06 54.14714 -1.69573 23160 ft 336 kts 15°
2026-05-04 16:06 54.20431 -1.67083 22355 ft 334 kts 15°
2026-05-04 16:07 54.23441 -1.65755 21694 ft 334 kts 15°
2026-05-04 16:07 54.30082 -1.62579 20493 ft 328 kts 15°
2026-05-04 16:08 54.32276 -1.61492 20088 ft 327 kts 15°
2026-05-04 16:08 54.38796 -1.58201 18974 ft 324 kts 15°
2026-05-04 16:09 54.43140 -1.55965 17869 ft 338 kts 15°
2026-05-04 16:09 54.47768 -1.53575 16595 ft 355 kts 15°
2026-05-04 16:10 54.52486 -1.51119 15442 ft 353 kts 15°
2026-05-04 16:11 54.59346 -1.46869 13952 ft 347 kts 20°
2026-05-04 16:11 54.61576 -1.45326 13401 ft 344 kts 20°
2026-05-04 16:12 54.68153 -1.40729 11822 ft 336 kts 20°
2026-05-04 16:12 54.73702 -1.36836 10493 ft 316 kts 20°
2026-05-04 16:13 54.76823 -1.34636 9592 ft 304 kts 20°
2026-05-04 16:13 54.79978 -1.32393 8598 ft 294 kts 20°
2026-05-04 16:14 54.83559 -1.30729 7740 ft 288 kts
2026-05-04 16:14 54.87146 -1.30345 7029 ft 268 kts
2026-05-04 16:15 54.91628 -1.29910 6141 ft 248 kts 356°
2026-05-04 16:16 54.94686 -1.31154 5396 ft 237 kts 340°
2026-05-04 16:16 54.99051 -1.33419 4422 ft 212 kts 340°
2026-05-04 16:17 55.01791 -1.34818 3998 ft 198 kts 340°
2026-05-04 16:18 55.05289 -1.37550 3474 ft 176 kts 307°
2026-05-04 16:18 55.06124 -1.39091 3361 ft 174 kts 313°
2026-05-04 16:19 55.08680 -1.43202 3070 ft 157 kts 315°
2026-05-04 16:19 55.09315 -1.46287 2902 ft 149 kts 261°
2026-05-04 16:20 55.08442 -1.51339 2325 ft 142 kts 250°
2026-05-04 16:20 55.07637 -1.54500 1935 ft 139 kts 247°
2026-05-04 16:21 55.06514 -1.58713 1451 ft 126 kts 245°
2026-05-04 16:22 55.05741 -1.61613 1045 ft 130 kts 244°
2026-05-04 16:22 55.04627 -1.65789 514 ft 123 kts 251°
2026-05-04 16:23 55.03733 -1.69203 253 ft 57 kts 245°
2026-05-04 16:24 55.03588 -1.70061 261 ft 12 kts 274°
2026-05-04 16:25 55.03601 -1.70377 266 ft 11 kts 274°
2026-05-04 16:26 55.03791 -1.70484 266 ft 4 kts 250°
2026-05-04 16:26 55.03743 -1.70577 266 ft 4 kts 227°
2026-05-04 16:27 55.03728 -1.70607 266 ft 0 kts 227°